Date,TemperatureHighF,TemperatureAvgF,TemperatureLowF,DewpointHighF,DewpointAvgF,DewpointLowF,HumidityHigh,HumidityAvg,HumidityLow,PressureMaxIn,PressureMinIn,WindSpeedMaxMPH,WindSpeedAvgMPH,GustSpeedMaxMPH,PrecipitationSumIn
2013-2-1,73,56,40,44,36,29,88,53,21,30.33,30.18,10,1,10,0.00
2013-2-2,77,57,40,54,45,38,94,69,36,30.27,30.15,8,0,8,0.00
2013-2-3,73,60,47,53,42,32,80,55,28,30.33,30.03,8,0,8,0.00
2013-2-4,76,63,53,59,55,50,92,77,49,30.03,29.80,8,0,8,0.00
2013-2-5,82,64,51,57,46,33,95,60,19,29.98,29.87,5,0,5,0.01
2013-2-6,77,65,58,61,58,53,94,79,50,30.00,29.84,9,0,9,0.06
2013-2-7,78,66,59,61,56,41,88,72,45,30.06,29.87,9,0,9,0.00
2013-2-8,72,59,45,47,36,25,80,47,18,30.23,30.06,8,1,8,0.00
2013-2-9,69,59,48,66,55,38,94,88,61,30.09,29.80,8,0,8,0.02
2013-2-10,70,64,58,65,42,24,92,50,22,30.01,29.76,9,1,9,0.02
2013-2-11,60,55,51,49,45,36,92,69,50,30.05,29.95,7,1,7,0.01
2013-2-12,73,60,51,57,44,20,95,65,18,30.03,29.81,10,0,10,0.03
2013-2-13,66,50,38,37,31,23,78,51,21,30.16,30.01,8,1,8,0.00
2013-2-14,71,50,34,40,35,31,91,61,25,30.14,30.00,6,0,9,0.00
2013-2-15,68,54,37,46,36,22,93,55,26,30.37,30.07,10,1,10,0.00
2013-2-16,67,51,32,30,26,19,73,41,20,30.46,30.23,9,0,9,0.00
2013-2-17,72,59,32,51,40,28,85,53,22,30.23,29.99,10,2,10,0.00
2013-2-18,82,68,56,61,48,24,85,53,23,30.06,29.84,10,1,10,0.00
2013-2-19,70,58,41,35,29,22,72,36,18,30.24,30.07,11,1,11,0.00
2013-2-20,68,60,52,64,53,30,92,79,35,30.10,29.66,9,1,9,0.03
2013-2-21,79,68,49,66,44,18,91,52,11,29.85,29.58,9,1,9,0.03
2013-2-22,62,52,46,40,35,28,71,53,30,30.02,29.85,8,1,8,0.00
2013-2-23,76,54,41,40,34,28,75,48,21,30.06,29.85,6,0,6,0.00
2013-2-24,70,56,39,58,48,36,91,75,51,29.92,29.62,6,1,9,0.00
2013-2-25,67,56,50,58,34,12,95,50,12,29.88,29.58,13,2,19,0.01
2013-2-26,69,42,0,29,16,0,36,16,16,29.96,29.84,9,1,9,0.00
2013-2-27,66,40,0,35,17,0,38,17,20,30.21,29.87,11,1,11,0.00
2013-2-28,62,36,0,29,15,0,40,17,18,30.33,30.18,7,0,8,0.00